Weather in Kuchkak

Uzbekistan     38°53′22″N   65°44′20″E
temp.,
°C
wind,
m/s
gust,
m/s
humid.,
%
clouds,
%
prec.,
mm/h
press.,
hPa
HPBL,
m
18 april, sun
sun1823:00+18nw5937100 0.0 1018255
02:00+18nw5114399 0.0 1019433
05:00+17nnw3446100 0.0 102095
08:00+18nnw354297 0.0 1021386
11:00+22n34295 0.0 10211450
14:00+24n44243 0.0 10202531
17:00+25nne33242 0.0 10182615
20:00+21e3332100 0.0 101818
19 april, mon
mon1923:00+19ene223785 0.0 101811
02:00+17e334619 0.0 101743
05:00+16e34515 0.0 101646
08:00+19e344236 0.0 1016174
11:00+24ese112789 0.0 10141566
14:00+26nnw32225 0.0 10122671
17:00+26n33219 0.0 10112521
20:00+22n3327100 0.0 101127
20 april, tue
tue2023:00+20ne333150 0.0 101122
02:00+18ene2337100 0.0 101020
05:00+17se1139100 0.0 101011
08:00+21ssw1130100 0.0 101292
11:00+24nw4526100 0.0 10121031
14:00+25nw4323100 0.0 10112514
17:00+24nne652743 0.0 10102000
20:00+20ne34365 0.0 101162
21 april, wed
wed2123:00+18ene22395 0.0 101111
02:00+17sse3344100 0.0 101125
05:00+17s3343100 0.0 101118
08:00+19ssw2438100 0.0 1013142
11:00+25wsw572584 0.0 10132364
14:00+25w572491 0.0 10122862
17:00+25nw86280 0.0 10122106
20:00+18nnw81239100 0.0 1015382
22 april, thu
thu2223:00+15n71168100 0.0 1016339
02:00+13n61071100 0.0 1016286
05:00+12nne597295 0.0 1017225
08:00+14ne45636 0.0 1019314
11:00+20nne44413 0.0 1019859
14:00+24nne88198 0.0 10181380
17:00+23nne10101899 0.0 10181010
20:00+16ne71133100 0.0 1019273